Regional Weather Roundup
Issued by NWS

Home | Current Version | Previous Version | Text Only | Print | Product List | Glossary Off
Versions: 1 2 3 4 5 6 7 8 9 10 11 12 13 14 15 16 17 18 19 20 21 22 23 24 25 26 27 28 29 30 31 32 33 34 35 36 37 38 39 40 41 42 43 44 45 46 47 48 49 50

000
ASUS43 KDTX 242310
RWRMI
MICHIGAN HOURLY REGIONAL WEATHER ROUNDUP
NATIONAL WEATHER SERVICE DETROIT/PONTIAC MI
700 PM EDT WED AUG 24 2016

NOTE: "FAIR" INDICATES FEW OR NO CLOUDS BELOW 12,000 FEET WITH NO
SIGNIFICANT WEATHER AND/OR OBSTRUCTION TO VISIBILITY.

MIZ047>049-052>055-059>063-066>070-074>076-081>083-250000-
SOUTHEAST LOWER MICHIGAN

CITY           SKY/WX    TMP DP  RH WIND       PRES   REMARKS
ADRIAN         LGT RAIN  76  75  97 SW12      29.98F
ALMA           PTSUNNY   80  74  81 SW7       29.93F
ANN ARBOR      LGT RAIN  77  74  90 S8        29.96F
BAD AXE        CLOUDY    74  70  88 S6        29.95R
CARO           CLOUDY    79  72  78 S9G16     29.93F
DETROIT CITY   CLOUDY    81  73  76 S15G24    29.95F
DETROIT        LGT RAIN  75  73  93 S9        29.96F
FLINT          MOSUNNY   84  70  62 SW8       29.94F
GROSSE ILE     CLOUDY    79  74  86 S15       29.95F
HILLSDALE      CLOUDY    76  71  85 S7        29.98F
HOWELL         CLOUDY    79  70  74 SW8       29.96F

CITY           SKY/WX    TMP DP  RH WIND       PRES   REMARKS
JACKSON        CLOUDY    76  74  93 S15       29.97F
LAMBERTVILLE   DRIZZLE   80  72  76 S9        29.99F
LANSING        PTSUNNY   80  70  71 SW14      29.95F
LAPEER         PTSUNNY   78  70  76 SW7       29.96F
MASON          CLOUDY    77  70  79 S7        29.96S
MONROE         CLOUDY    81  73  75 SW13G18   29.96F
MT. CLEMENS    LGT RAIN  79  73  83 S13       29.94F
PONTIAC        CLOUDY    77  73  87 SW5       29.96F
PORT HOPE        N/A     76  72  87 SW10G20   29.92
PORT HURON     LGT RAIN  73  72  94 S5        29.98S
TRI CITIES     SUNNY     80  72  76 SW13      29.92F
MIDLAND        CLOUDY    80  70  71 SW9       29.91S
TROY           HVY RAIN  77  73  85 W8G16     29.98F
SAGINAW HB     CLOUDY    79  70  73 S9        29.92F
$$
MIZ043>046-050>051-056>058-064>065-071>073-077>080-250000-
SOUTHWEST LOWER MICHIGAN

CITY           SKY/WX    TMP DP  RH WIND       PRES   REMARKS
BATTLE CREEK   PTSUNNY   76  74  93 S7        29.96F
BENTON HARBOR  CLOUDY    81  71  71 SW10      29.93S
BIG RAPIDS     PTSUNNY   77  70  78 SW10G17   29.92F
COLDWATER      CLOUDY    77  73  86 S5        29.97F
FREMONT        CLOUDY    74  72  91 S7        29.92F
HOLLAND        CLOUDY    78  72  81 SW9       29.94F
GRAND RAPIDS   PTSUNNY   78  70  76 SW13      29.94F
IONIA          FAIR      79  68  69 SW12      29.93S
KALAMAZOO      LGT RAIN  79  72  79 S6        29.94F
LUDINGTON      PTSUNNY   77  71  81 SW12      29.90S
MARSHALL       CLOUDY    77  75  94 S3        29.96F
MOUNT PLEASANT PTSUNNY   81  71  72 SW6       29.92S
MUSKEGON       PTSUNNY   78  72  81 S12       29.93S
SOUTH HAVEN    CLOUDY    80  74  81 W5        29.94S
$$
MIZ016>042-250000-
NORTHERN LOWER MICHIGAN

CITY           SKY/WX    TMP DP  RH WIND       PRES   REMARKS
ALPENA         MOSUNNY   81  68  64 SW9       29.87F
BEAVER ISLAND  MOSUNNY   72  69  89 SW15G22   29.85R
BELLAIRE       PTSUNNY   80  67  65 SW10G18   29.86F
CADILLAC       CLOUDY    76  68  74 SW10G18   29.92F
CHARLEVOIX     CLOUDY    76  68  77 SW7       29.89S
FRANKFORT      CLOUDY    76  70  81 S10G17    29.88S
GAYLORD        MOSUNNY   79  65  62 SW15      29.89F
GRAYLING       CLOUDY    80  68  67 SW9       29.90F
HARBOR SPRINGS CLOUDY    75  69  82 W5        29.86R
HOUGHTON LAKE  PTSUNNY   78  66  66 SW16G24   29.92F
MANISTEE       PTSUNNY   78  70  76 SW8       29.88F
OSCODA         MOSUNNY   79  69  69 SW14G20   29.89F
PELLSTON       LGT RAIN  75  68  78 SW10      29.86R
ROGERS CITY    MOSUNNY   79  70  73 SW5       29.86F
TRAVERSE CITY  PTSUNNY   80  68  66 SW9G18    29.85F
$$
MIZ007>008-015-250000-
EASTERN UPPER MICHIGAN

CITY           SKY/WX    TMP DP  RH WIND       PRES   REMARKS
KINROSS        LGT RAIN  69  68  96 SW6       29.84S
MACKINAC ISLAN LGT RAIN  70  70 100 SW14G21   29.85S
NEWBERRY       CLOUDY    70  69  97 SW10      29.82S
S. S. MARIE    CLOUDY    70  69  97 SW9       29.82S
MUNISING         N/A     71  69  93 NW8       29.80
$$
MIZ004>006-011>014-085-250000-
CENTRAL UPPER MICHIGAN

CITY           SKY/WX    TMP DP  RH WIND       PRES   REMARKS
MANISTIQUE     CLOUDY    67  64  91 SW9       29.82S
ESCANABA       CLOUDY    76  70  82 SW9       29.82S
MENOMINEE      PTSUNNY  N/A N/A N/A SW6         N/A
SAWYER-GWINN   PTSUNNY   75  66  73 NW5       29.84R
$$
MIZ001>003-009>011-084-250000-
WESTERN UPPER MICHIGAN

CITY           SKY/WX    TMP DP  RH WIND       PRES   REMARKS
IRON MOUNTAIN  CLOUDY    75  66  73 W7        29.85R
HOUGHTON       CLOUDY    73  63  70 W14       29.80F
COPPER HARBOR    N/A     70  66  87 N8        29.78F
IRONWOOD       MOSUNNY   75  66  73 SW10      29.86R
$$

ABBREVIATIONS USED IN REMARKS
   TC - TEMPERATURE IN CELSIUS
  WCI - WIND CHILL INDEX
   HX - HEAT INDEX
  VSB - VISIBILITY





USA.gov is the U.S. government's official web portal to all federal, state and local government web resources and services.